Location: Chandrammap?lem
(16.9200°N, 81.0051°E)
Time: 10:43:10
(UTC+00:00)

Haruka - Pass Details

Date: 29 May 2024
Orbit: 527 x 21175 km, 31.3° (Epoch: 14 June)

Event Time Altitude Azimuth Distance (km) Brightness Sun altitude
Rises 13:38:27 0° 295° (WNW) 17,572 12.5 -8.1°
Reaches altitude 10° 14:04:29 10° 297° (WNW) 11,403 10.4 -13.6°
Maximum altitude 14:33:25 87° 211° (SSW) 1,652 4.6 -19.6°
Enters shadow 14:36:42 33° 123° (ESE) 1,821 4.3 -20.3°
